Location: Alexander
(41.3564°N, 81.5960°W)
Time: 09:02:42
(UTC+00:00)

COSMOS 2406 - Pass Details

Date: 24 January 2021
Orbit: 841 x 865 km, 71.0° (Epoch: 02 March)

Event Time Altitude Azimuth Distance (km) Brightness Sun altitude
Rises 23:29:22 0° 345° (NNW) 3,456 6.4 -10.7°
Reaches altitude 10° 23:32:15 10° 358° (N) 2,514 5.5 -11.2°
Maximum altitude 23:37:04 26° 54° (NE) 1,625 4.2 -12.1°
Enters shadow 23:41:09 13° 106° (ESE) 2,295 4.9 -12.9°
